This is the latest recevied weather packets stored in our database for station/object N6ZHV-13. If no packets are shown the sender has not sent any weather packets the latest 1 day(s).
| Time | Temp. | Humidity | Pressure | Rain* | Wind** | Luminosity | Snow |
|---|---|---|---|---|---|---|---|
| 1778096690 | 20.56° C | 59% | 1017.8 hPa | 0 mm | - | - | - |
| 1778096390 | 20.56° C | 59% | 1019.4 hPa | 0 mm | - | - | - |
| 1778096090 | 20° C | 61% | 1019.4 hPa | 0 mm | - | - | - |
| 1778095790 | 20° C | 61% | 1019.5 hPa | 0 mm | - | - | - |
| 1778095490 | 20° C | 62% | 1019.5 hPa | 0 mm | - | - | - |
| 1778095190 | 20° C | 61% | 1019.6 hPa | 0 mm | - | - | - |
| 1778094890 | 20° C | 58% | 1019.7 hPa | 0 mm | - | - | - |
| 1778094590 | 20° C | 57% | 1018.5 hPa | 0 mm | - | - | - |
| 1778094290 | 20° C | 58% | 1018.8 hPa | 0 mm | - | - | - |
| 1778093990 | 20° C | 56% | 1017.1 hPa | 0 mm | - | - | - |
| 1778093690 | 20° C | 55% | 1019.9 hPa | 0 mm | - | - | - |
| 1778093390 | 20° C | 55% | 1020 hPa | 0 mm | - | - | - |
| 1778093090 | 20° C | 54% | 1020 hPa | 0 mm | - | - | - |
| 1778092790 | 20° C | 55% | 1020 hPa | 0 mm | - | - | - |
| 1778092490 | 19.44° C | 56% | 1020.1 hPa | 0 mm | - | - | - |
| 1778092190 | 19.44° C | 55% | 1020.2 hPa | 0 mm | - | - | - |
| 1778091890 | 18.89° C | 56% | 1020.3 hPa | 0 mm | - | - | - |
| 1778091590 | 18.89° C | 55% | 1020.3 hPa | 0 mm | - | - | - |
| 1778091290 | 18.89° C | 57% | 1020.3 hPa | 0 mm | - | - | - |
| 1778090990 | 18.89° C | 58% | 1019.1 hPa | 0 mm | - | - | - |
| 1778090690 | 18.89° C | 60% | 1019.2 hPa | 0 mm | - | - | - |
| 1778089790 | 18.33° C | 60% | 1016.7 hPa | 0 mm | - | - | - |
| 1778089490 | 18.33° C | 62% | 1020.4 hPa | 0 mm | - | - | - |
| 1778089190 | 18.33° C | 62% | 1020.4 hPa | 0 mm | - | - | - |
| 1778088890 | 18.33° C | 61% | 1020.4 hPa | 0 mm | - | - | - |
* Rain latest hour (hover to see other rain measurements)
** Current wind speed in m/s (hover to see current wind gust speed)